sat.trackr.live / text

‹ back to catalog

STARLINK-3052

NORAD 49165 · 2021-082AM

PAYLOAD ACTIVE UNKNOWN

§ Identity

Operator
Country
US
Launch date
2021-09-14
Launch site
AFWTR
Launch vehicle
Mass (kg)
RCS (m²)

Purposes: comms

External: N2YO · Heavens-Above · Gunter

§ Orbital elements

Epoch: 2026-05-25T02:41:51.239040Z

Period
96.11 min
Inclination
69.9992°
Eccentricity
0.0003340
Mean motion
14.98332851 rev/d
Perigee alt
569.7 km
Apogee alt
574.4 km
Semi-major
6,950.2 km
B*
1.4960e-5
RAAN
101.7817°
Arg perigee
268.6294°
Mean anomaly
91.4482°
Rev number
25,862

§ Raw data

STARLINK-30521 49165U 21082AM  26145.11239860  .00000085  00000+0  14960-4 0  99922 49165  69.9992 101.7817 0003340 268.6294  91.4482 14.98332851258628

JSON: /api/v1/satellites/49165 · /tle

For live sub-satellite position, see the globe view (requires WebGL).

§ Visibility from observer

Set your observer location to see the next 7 days of passes ≥ 10°. The values pass through the URL so the page stays shareable.

No JS? Fill the form by hand. The geolocation button needs JavaScript.